[[{"header":{"parameterUnit":"m.s-1","parameterCategory":2,"la1":30.2991,"la2":30.254,"lo1":-89.0895,"lo2":-89.0444,"dy":0.0017,"dx":0.0017,"nx":28,"ny":28,"refTime":"2023-11-13T09:00:00:Z","depth":"0","parameterNumber":2,"parameterNumberName":"U-component_of_CURRENTS"},"data":[0,0,0,0,0,0,0,0,0,0,0,0,0,0,0,0,0,0,0,0,0,0,0,0,0,0,0,0,0,0,0,0,0,0,0,0,0,0,0,0,0,0,0,0,0,0,0,0,0,0,0,0,0,0,0,0,0,0,-0.2774,-0.2774,0,-0.2721,-0.272,-0.2719,-0.264,-0.264,-0.2639,-0.2638,-0.2497,-0.2494,-0.2491,0,0,0,0,0,0,0,0,0,0,0,0,0,-0.2779,-0.2779,-0.2774,-0.2774,-0.2774,-0.2721,-0.272,-0.2719,-0.264,-0.2639,-0.2638,-0.2637,-0.2498,-0.2495,-0.2491,0,0,0,0,0,0,0,0,0,0,0,0,0,-0.2751,-0.2779,-0.2774,-0.2733,-0.2729,-0.2721,-0.272,-0.2718,-0.2641,-0.2639,-0.2638,-0.2637,-0.2499,-0.2495,-0.2491,-0.2489,0,0,-0.2477,-0.2475,0,0,0,0,0,0,0,0,-0.2752,-0.275,-0.2739,-0.2736,-0.2732,-0.2691,-0.267,-0.2639,-0.2641,-0.2668,-0.2638,-0.2636,-0.2559,-0.2549,-0.2535,-0.2482,-0.2476,-0.2477,-0.2474,-0.2472,-0.2471,0,0,0,0,0,0,0,-0.2755,-0.2752,-0.2747,-0.2739,-0.2735,-0.2707,-0.2702,-0.2664,-0.2615,-0.2666,-0.2661,-0.2665,-0.2555,-0.254,-0.2531,-0.2474,-0.2477,-0.2473,-0.247,-0.2468,-0.2452,-0.2454,0,0,0,0,0,0,-0.2776,-0.2754,-0.2749,-0.2746,-0.2746,-0.2709,-0.2702,-0.2701,-0.2617,-0.2606,-0.2666,-0.2662,-0.2548,-0.2536,-0.2526,-0.2553,-0.2472,-0.2468,-0.2465,-0.245,-0.2453,-0.2455,0,0,0,0,0,0,-0.2776,-0.2776,-0.2751,-0.2754,-0.2749,-0.2711,-0.2709,-0.27,-0.2685,-0.262,-0.2605,-0.266,-0.2546,-0.2532,-0.2512,-0.2545,-0.2466,-0.2462,-0.2447,-0.2451,-0.2454,-0.2584,0,0,0,0,0,0,-0.2776,-0.2776,-0.2774,-0.2755,-0.275,-0.2764,-0.2711,-0.2701,-0.2692,-0.2685,-0.261,-0.2596,-0.2544,-0.2519,-0.2508,-0.2538,-0.2459,-0.2445,-0.2449,-0.2453,-0.2577,-0.2592,-0.2604,0,0,0,0,0,-0.2777,-0.2787,-0.2774,-0.2773,-0.2751,-0.2766,-0.2761,-0.2724,-0.2693,-0.2701,-0.2655,-0.2598,-0.2538,-0.2518,-0.2503,-0.2533,-0.2443,-0.2448,-0.2453,-0.2571,-0.2589,-0.2604,0,0,0,0,0,0,-0.2779,-0.2781,-0.2765,-0.2772,-0.2777,-0.2755,-0.2756,-0.2734,-0.2703,-0.2689,-0.2619,-0.2603,-0.2599,-0.2554,-0.2534,-0.2544,-0.2484,-0.2486,-0.2579,-0.2595,-0.2608,-0.2617,-0.2455,0,0,0,0,0,-0.2784,-0.2795,-0.2794,-0.28,-0.2806,-0.2782,-0.2778,-0.2761,-0.2738,-0.2721,-0.2675,-0.2632,-0.2611,-0.2593,-0.256,-0.2562,-0.2531,-0.2576,-0.2589,-0.2601,-0.2602,-0.2585,-0.2597,-0.2472,-0.2472,-0.2472,0,0,-0.2785,-0.2789,-0.2791,-0.2802,-0.2796,-0.2832,-0.2775,-0.2784,-0.2808,-0.2712,-0.2717,-0.2672,-0.2622,-0.2628,-0.2622,-0.2592,-0.2631,-0.2607,-0.2617,-0.2611,-0.2591,-0.2603,-0.2614,-0.2475,-0.2474,-0.2474,0,0,-0.2822,-0.2801,-0.2836,-0.2852,-0.2865,-0.2859,-0.2871,-0.286,-0.2845,-0.2853,-0.2796,-0.2776,-0.2736,-0.2713,-0.2696,-0.2765,-0.2701,-0.2758,-0.283,-0.2815,-0.2825,-0.2833,-0.2852,-0.286,-0.2766,-0.2766,-0.2766,0,-0.2822,-0.2868,-0.2848,-0.2898,-0.2919,-0.2884,-0.2936,-0.2929,-0.2912,-0.2906,-0.2873,-0.2825,-0.2781,-0.2791,-0.2819,-0.2794,-0.2783,-0.2772,-0.2832,-0.2839,-0.2845,-0.2862,-0.2869,-0.2773,-0.2772,-0.2771,-0.2771,0,-0.2896,-0.2937,-0.2962,-0.3015,-0.3032,-0.3069,-0.3071,-0.3074,-0.3048,-0.3034,-0.3025,-0.2968,-0.2936,-0.2932,-0.2895,-0.2923,-0.2904,-0.285,-0.2789,-0.2865,-0.2879,-0.2885,-0.2783,-0.278,-0.2778,-0.2776,0,0,-0.2885,-0.2995,-0.3004,-0.3054,-0.3096,-0.3118,-0.3161,-0.3185,-0.3198,-0.3171,-0.3182,-0.3154,-0.31,-0.3078,-0.3026,-0.3016,-0.3064,-0.2961,-0.2956,-0.2978,-0.306,-0.3101,-0.311,-0.3016,-0.3017,-0.3017,-0.3068,0,-0.295,-0.3076,-0.3106,-0.3211,-0.3272,-0.3263,-0.3311,-0.3318,-0.3295,-0.3294,-0.3235,-0.3224,-0.3165,-0.3145,-0.3131,-0.3062,-0.3078,-0.3057,-0.2983,-0.2982,-0.3006,-0.3117,-0.317,-0.3223,-0.3073,-0.3073,-0.3074,0,-0.3009,-0.3092,-0.3217,-0.332,-0.3341,-0.3389,-0.3423,-0.3457,-0.3446,-0.3427,-0.3394,-0.3337,-0.3319,-0.3249,-0.3201,-0.3188,-0.3148,-0.3101,-0.3101,-0.309,-0.3033,-0.3114,-0.3238,-0.3252,-0.3082,-0.3081,-0.308,0,-0.3015,-0.3157,-0.326,-0.3297,-0.341,-0.3441,-0.3475,-0.3486,-0.3503,-0.3494,-0.3494,-0.3451,-0.3419,-0.336,-0.3265,-0.3237,-0.3208,-0.315,-0.3163,-0.3166,-0.3172,-0.3174,-0.3293,-0.3142,-0.3142,-0.3142,-0.3142,0,-0.3069,-0.3145,-0.3271,-0.3329,-0.3414,-0.3473,-0.3531,-0.3546,-0.3571,-0.3595,-0.3554,-0.3549,-0.344,-0.3396,-0.3315,-0.3271,-0.3253,-0.3208,-0.3188,-0.3225,-0.3231,-0.3207,-0.3174,-0.3144,-0.3143,-0.3143,-0.3142,0,-0.3055,-0.3154,-0.3264,-0.3394,-0.3424,-0.3469,-0.3552,-0.3583,-0.3624,-0.3648,-0.3652,-0.3624,-0.3579,-0.3489,-0.3392,-0.3347,-0.3282,-0.3275,-0.3349,-0.3337,-0.3373,-0.3344,-0.3332,-0.329,-0.3323,-0.3325,-0.3326,0,-0.3059,-0.3125,-0.3273,-0.3312,-0.3366,-0.3445,-0.3492,-0.3576,-0.3611,-0.3686,-0.3693,-0.3682,-0.3664,-0.3578,-0.3501,-0.3432,-0.3333,-0.3433,-0.339,-0.3425,-0.3376,-0.3284,-0.3241,-0.3464,-0.3466,-0.3468,-0.3469,0,-0.3043,-0.3097,-0.3185,-0.3252,-0.3313,-0.3393,-0.3471,-0.3514,-0.3618,-0.3665,-0.3723,-0.3733,-0.3736,-0.3707,-0.3635,-0.3557,-0.3432,-0.3471,-0.3476,-0.3493,-0.3428,-0.3362,-0.3397,-0.3486,-0.3484,-0.3483,-0.3482,-0.3481,-0.2997,-0.3037,-0.3123,-0.3156,-0.3217,-0.3269,-0.3165,-0.3325,-0.3372,-0.3342,-0.3655,-0.3638,-0.3843,-0.3763,-0.3722,-0.3687,-0.355,-0.3629,-0.3594,-0.35,-0.3459,-0.3561,-0.3635,-0.3634,-0.3633,-0.3633,-0.3632,0,-0.2944,-0.2973,-0.3004,-0.2986,-0.2889,-0.3014,-0.3055,-0.2894,-0.2826,-0.3098,-0.3191,-0.3584,-0.3731,-0.3811,-0.3919,-0.3853,-0.3727,-0.3755,-0.3649,-0.3596,-0.3689,-0.3699,-0.3829,-0.3829,-0.3829,-0.3829,-0.3829,-0.3828,-0.292,-0.2932,-0.2927,-0.266,-0.2568,-0.2358,-0.2286,-0.2203,-0.227,-0.2342,-0.2575,-0.2887,-0.3282,-0.3938,-0.4046,-0.3941,-0.3794,-0.3737,-0.3638,-0.3748,-0.3733,-0.3719,-0.3725,-0.3858,-0.3858,-0.3535,-0.3533,-0.3531]},{"header":{"parameterUnit":"m.s-1","parameterCategory":2,"la1":30.2991,"la2":30.254,"lo1":-89.0895,"lo2":-89.0444,"dy":0.0017,"dx":0.0017,"nx":28,"ny":28,"refTime":"2023-11-13T09:00:00:Z","depth":"0","parameterNumber":3,"parameterNumberName":"V-component_of_CURRENTS"},"data":[0,0,0,0,0,0,0,0,0,0,0,0,0,0,0,0,0,0,0,0,0,0,0,0,0,0,0,0,0,0,0,0,0,0,0,0,0,0,0,0,0,0,0,0,0,0,0,0,0,0,0,0,0,0,0,0,0,0,-0.0177,-0.0175,0,-0.0032,-0.0031,-0.0029,0.0036,0.0036,0.0036,0.0036,0.0163,0.0166,0.017,0,0,0,0,0,0,0,0,0,0,0,0,0,-0.0339,-0.0337,-0.0177,-0.0175,-0.0173,-0.0033,-0.0031,-0.0029,0.0036,0.0036,0.0036,0.0036,0.0162,0.0166,0.017,0,0,0,0,0,0,0,0,0,0,0,0,0,-0.024,-0.0336,-0.0177,-0.0124,-0.0117,-0.0033,-0.0031,-0.0028,0.0036,0.0036,0.0036,0.0036,0.016,0.0165,0.017,0.0206,0,0,0.0186,0.0189,0,0,0,0,0,0,0,0,-0.0246,-0.0234,-0.0133,-0.0127,-0.012,-0.0016,-0.0041,0.005,0.0036,-0.0023,0.0036,0.0035,0.0102,0.0112,0.0139,0.0212,0.0217,0.0187,0.019,0.0192,0.0194,0,0,0,0,0,0,0,-0.0253,-0.024,-0.012,-0.0131,-0.0123,-0.0087,-0.0073,-0.0023,0.0038,-0.0018,-0.0012,0.0005,0.0105,0.0134,0.0142,0.0219,0.0187,0.0191,0.0195,0.0197,0.0369,0.037,0,0,0,0,0,0,-0.0272,-0.0246,-0.0125,-0.0116,-0.0184,-0.0084,-0.0069,-0.005,0.0038,0.0051,0.0005,0.0007,0.0125,0.0136,0.0147,0.0224,0.0192,0.0197,0.02,0.0367,0.0369,0.037,0,0,0,0,0,0,-0.0276,-0.0262,-0.0131,-0.0178,-0.0158,-0.0081,-0.006,-0.0047,-0.0019,0.0055,0.0068,0.0019,0.0125,0.014,0.0204,0.0228,0.02,0.0204,0.0365,0.0368,0.037,0.036,0,0,0,0,0,0,-0.0281,-0.0264,-0.0263,-0.0179,-0.0156,-0.0085,-0.0059,-0.0044,-0.0007,-0.0003,0.0072,0.0084,0.0126,0.0196,0.0209,0.0235,0.0208,0.0364,0.0366,0.0369,0.0358,0.0361,0.0364,0,0,0,0,0,-0.0287,-0.0286,-0.0264,-0.025,-0.0155,-0.0085,-0.007,-0.0016,-0.0007,0.0007,0.0066,0.0081,0.0222,0.0202,0.0217,0.0245,0.0362,0.0366,0.0369,0.0357,0.0361,0.0364,0,0,0,0,0,0,-0.0361,-0.0276,-0.0251,-0.0226,-0.0162,-0.0074,-0.006,-0.0021,0.0037,0.0037,0.0101,0.0118,0.0182,0.0216,0.0191,0.0303,0.0294,0.0301,0.028,0.0284,0.0287,0.0283,0.0213,0,0,0,0,0,-0.0376,-0.0352,-0.0264,-0.0247,-0.0218,-0.0141,-0.0109,-0.0068,-0.0002,0.0022,0.008,0.0143,0.0209,0.0246,0.03,0.0362,0.0403,0.0391,0.0393,0.0395,0.0404,0.0488,0.0499,0.0381,0.0381,0.0381,0,0,-0.0404,-0.0353,-0.0342,-0.0261,-0.0211,-0.0161,-0.0122,-0.0076,-0.0026,0.0027,0.0098,0.0149,0.0226,0.0299,0.0331,0.033,0.0451,0.0399,0.0401,0.0408,0.0493,0.0504,0.0514,0.0383,0.0383,0.0382,0,0,-0.0442,-0.0398,-0.0388,-0.0329,-0.0252,-0.0191,-0.018,-0.0088,-0.0042,0.0033,0.0088,0.0159,0.0249,0.0324,0.037,0.0422,0.0457,0.0432,0.0452,0.0534,0.0544,0.0553,0.0617,0.0632,0.044,0.044,0.044,0,-0.0483,-0.0442,-0.0376,-0.0338,-0.0289,-0.0207,-0.017,-0.0104,-0.0001,0.0053,0.0049,0.0219,0.0269,0.0391,0.0408,0.0429,0.0471,0.043,0.0537,0.0547,0.0557,0.062,0.0637,0.044,0.044,0.044,0.044,0,-0.0498,-0.0459,-0.0447,-0.0365,-0.0305,-0.0263,-0.0153,-0.0091,-0.0031,0.0046,0.0163,0.0244,0.035,0.0376,0.0408,0.0515,0.052,0.0522,0.0523,0.0568,0.0631,0.0649,0.0439,0.0439,0.0439,0.044,0,0,-0.0607,-0.0484,-0.048,-0.0435,-0.0311,-0.0263,-0.0167,-0.0046,0.0028,0.012,0.0222,0.0335,0.0381,0.0436,0.0492,0.0563,0.0661,0.0567,0.0572,0.0621,0.0832,0.0917,0.0945,0.0678,0.0681,0.0684,0.0846,0,-0.064,-0.0596,-0.05,-0.0432,-0.0397,-0.0261,-0.0177,-0.0055,0.0059,0.0176,0.0288,0.0392,0.0407,0.0456,0.0534,0.0634,0.0708,0.0616,0.079,0.0795,0.0858,0.0969,0.1092,0.1255,0.0864,0.0867,0.0869,0,-0.0688,-0.0644,-0.0601,-0.0457,-0.0425,-0.0361,-0.0191,-0.0097,0.0098,0.0187,0.0323,0.0415,0.0558,0.0542,0.0744,0.0682,0.0755,0.0821,0.0828,0.0926,0.0915,0.115,0.1302,0.1505,0.0897,0.0895,0.0893,0,-0.0827,-0.0705,-0.0675,-0.0629,-0.0464,-0.0399,-0.0301,-0.011,-0.0006,0.0199,0.0297,0.0468,0.0572,0.0686,0.0833,0.0792,0.1042,0.1004,0.1152,0.1157,0.131,0.1324,0.1676,0.1142,0.1141,0.1141,0.114,0,-0.0906,-0.0879,-0.0737,-0.0725,-0.066,-0.0501,-0.0392,-0.0258,-0.005,0.01,0.028,0.0444,0.0613,0.0785,0.0871,0.1095,0.1083,0.1194,0.1228,0.1309,0.1321,0.1538,0.1586,0.1147,0.1145,0.1144,0.1143,0,-0.1072,-0.0981,-0.0938,-0.0784,-0.0734,-0.0693,-0.0475,-0.0376,-0.0164,0.0045,0.0112,0.0436,0.0697,0.0866,0.1091,0.1176,0.1476,0.1414,0.1493,0.1535,0.1848,0.1888,0.2219,0.225,0.1616,0.162,0.1623,0,-0.1152,-0.1157,-0.1034,-0.1002,-0.0932,-0.0827,-0.074,-0.0492,-0.0342,0.0065,0.0171,0.05,0.0793,0.1174,0.1386,0.1606,0.1661,0.1807,0.1759,0.1938,0.2007,0.1997,0.1993,0.195,0.1956,0.196,0.1963,0,-0.1307,-0.127,-0.1233,-0.1179,-0.1095,-0.097,-0.08,-0.0688,-0.0341,-0.01,0.0321,0.0599,0.1064,0.1493,0.1772,0.185,0.1973,0.1903,0.2097,0.2329,0.2338,0.2358,0.1741,0.2002,0.1998,0.1996,0.1994,0.1992,-0.1426,-0.1443,-0.139,-0.132,-0.1231,-0.1069,-0.0953,-0.0706,-0.0425,0.0029,0.0382,0.0901,0.1587,0.2063,0.2165,0.2469,0.2299,0.2556,0.2596,0.2573,0.2613,0.2074,0.236,0.2359,0.2357,0.2356,0.2355,0,-0.1543,-0.1534,-0.1511,-0.1391,-0.1293,-0.1199,-0.0949,-0.0767,-0.0427,0.0026,0.0498,0.1493,0.2136,0.2581,0.3107,0.3227,0.3103,0.3233,0.3276,0.3231,0.2811,0.2838,0.3234,0.3234,0.3234,0.3233,0.3233,0.3233,-0.1604,-0.1626,-0.1588,-0.145,-0.1348,-0.1147,-0.0994,-0.0695,-0.0356,0.0334,0.0939,0.1436,0.2298,0.3539,0.4014,0.3916,0.3931,0.3901,0.385,0.3623,0.3562,0.3504,0.3548,0.4086,0.4087,0.4255,0.4258,0.426]}],[{"header":{"parameterUnit":"m.s-1","parameterCategory":2,"la1":30.2991,"la2":30.254,"lo1":-89.0895,"lo2":-89.0444,"dy":0.0017,"dx":0.0017,"nx":28,"ny":28,"refTime":"2023-11-13T09:00:00:Z","depth":"2","parameterNumber":2,"parameterNumberName":"U-component_of_CURRENTS"},"data":[0,0,0,0,0,0,0,0,0,0,0,0,0,0,0,0,0,0,0,0,0,0,0,0,0,0,0,0,0,0,0,0,0,0,0,0,0,0,0,0,0,0,0,0,0,0,0,0,0,0,0,0,0,0,0,0,0,0,-0.2722,-0.2722,0,-0.267,-0.2669,-0.2668,-0.259,-0.259,-0.2589,-0.2588,-0.2449,-0.2446,-0.2443,0,0,0,0,0,0,0,0,0,0,0,0,0,-0.2726,-0.2726,-0.2723,-0.2722,-0.2722,-0.267,-0.2669,-0.2667,-0.2591,-0.259,-0.2589,-0.2588,-0.245,-0.2446,-0.2443,0,0,0,0,0,0,0,0,0,0,0,0,0,-0.2699,-0.2726,-0.2723,-0.2682,-0.2678,-0.267,-0.2669,-0.2667,-0.2591,-0.259,-0.2588,-0.2587,-0.2451,-0.2447,-0.2442,-0.2439,0,0,-0.2429,-0.2427,0,0,0,0,0,0,0,0,-0.27,-0.2698,-0.2688,-0.2685,-0.2681,-0.264,-0.2619,-0.2589,-0.2591,-0.2618,-0.2588,-0.2587,-0.251,-0.25,-0.2486,-0.2433,-0.2427,-0.2428,-0.2426,-0.2424,-0.2423,0,0,0,0,0,0,0,-0.2702,-0.27,-0.2696,-0.2688,-0.2684,-0.2656,-0.2651,-0.2613,-0.2565,-0.2615,-0.2611,-0.2615,-0.2506,-0.2491,-0.2482,-0.2425,-0.2429,-0.2425,-0.2422,-0.242,-0.2405,-0.2407,0,0,0,0,0,0,-0.2724,-0.2702,-0.2697,-0.2695,-0.2694,-0.2658,-0.2651,-0.265,-0.2567,-0.2556,-0.2616,-0.2612,-0.2499,-0.2487,-0.2477,-0.2505,-0.2424,-0.242,-0.2417,-0.2402,-0.2405,-0.2407,0,0,0,0,0,0,-0.2724,-0.2724,-0.27,-0.2702,-0.2698,-0.266,-0.2658,-0.265,-0.2634,-0.257,-0.2555,-0.2611,-0.2497,-0.2483,-0.2464,-0.2497,-0.2418,-0.2414,-0.24,-0.2403,-0.2406,-0.2537,0,0,0,0,0,0,-0.2724,-0.2724,-0.2722,-0.2703,-0.2698,-0.2712,-0.266,-0.265,-0.2642,-0.2635,-0.2561,-0.2546,-0.2495,-0.2471,-0.2459,-0.249,-0.241,-0.2397,-0.2401,-0.2405,-0.253,-0.2544,-0.2557,0,0,0,0,0,-0.2724,-0.2735,-0.2722,-0.2722,-0.27,-0.2714,-0.2709,-0.2674,-0.2643,-0.2651,-0.2605,-0.2549,-0.2489,-0.2469,-0.2455,-0.2485,-0.2395,-0.24,-0.2405,-0.2524,-0.2541,-0.2556,0,0,0,0,0,0,-0.2727,-0.2729,-0.2714,-0.2721,-0.2726,-0.2704,-0.2705,-0.2684,-0.2653,-0.2639,-0.257,-0.2554,-0.255,-0.2506,-0.2485,-0.2496,-0.2436,-0.2438,-0.2531,-0.2547,-0.256,-0.257,-0.2407,0,0,0,0,0,-0.2733,-0.2743,-0.2742,-0.2748,-0.2755,-0.2731,-0.2728,-0.2711,-0.2688,-0.2672,-0.2626,-0.2583,-0.2562,-0.2545,-0.2512,-0.2514,-0.2484,-0.2528,-0.2542,-0.2553,-0.2554,-0.2538,-0.255,-0.2424,-0.2424,-0.2424,0,0,-0.2734,-0.2738,-0.274,-0.2751,-0.2745,-0.278,-0.2724,-0.2734,-0.2757,-0.2662,-0.2668,-0.2623,-0.2574,-0.258,-0.2575,-0.2544,-0.2584,-0.256,-0.257,-0.2564,-0.2545,-0.2557,-0.2567,-0.2427,-0.2427,-0.2426,0,0,-0.2771,-0.275,-0.2785,-0.2801,-0.2815,-0.2809,-0.282,-0.281,-0.2796,-0.2804,-0.2747,-0.2728,-0.2688,-0.2665,-0.2648,-0.2718,-0.2655,-0.2711,-0.2783,-0.2769,-0.2779,-0.2787,-0.2807,-0.2815,-0.2718,-0.2719,-0.2719,0,-0.2771,-0.2817,-0.2798,-0.2847,-0.2867,-0.2834,-0.2885,-0.2879,-0.2862,-0.2856,-0.2824,-0.2777,-0.2733,-0.2743,-0.2772,-0.2747,-0.2736,-0.2725,-0.2786,-0.2793,-0.2799,-0.2816,-0.2824,-0.2726,-0.2725,-0.2724,-0.2724,0,-0.2845,-0.2886,-0.2911,-0.2963,-0.298,-0.3016,-0.3019,-0.3022,-0.2997,-0.2983,-0.2976,-0.292,-0.2888,-0.2885,-0.2848,-0.2877,-0.2858,-0.2804,-0.2743,-0.282,-0.2834,-0.284,-0.2736,-0.2733,-0.2731,-0.2729,0,0,-0.2835,-0.2943,-0.2952,-0.3001,-0.3043,-0.3065,-0.3108,-0.3131,-0.3144,-0.3119,-0.3131,-0.3104,-0.3051,-0.303,-0.2979,-0.297,-0.3019,-0.2915,-0.2911,-0.2933,-0.3017,-0.3055,-0.3064,-0.2972,-0.2973,-0.2973,-0.3025,0,-0.2899,-0.3024,-0.3053,-0.3156,-0.3216,-0.3208,-0.3255,-0.3262,-0.324,-0.324,-0.3184,-0.3174,-0.3116,-0.3097,-0.3084,-0.3017,-0.3033,-0.3012,-0.294,-0.2939,-0.296,-0.3071,-0.2675,-0.2691,-0.303,-0.3031,-0.3031,0,-0.2958,-0.3039,-0.3162,-0.3262,-0.3284,-0.3331,-0.3363,-0.3398,-0.3388,-0.337,-0.334,-0.3284,-0.3269,-0.3201,-0.3156,-0.3143,-0.3104,-0.3058,-0.3058,-0.3044,-0.2986,-0.2661,-0.2688,-0.304,-0.3039,-0.3039,-0.3038,0,-0.2964,-0.3104,-0.3204,-0.3241,-0.3351,-0.3381,-0.3415,-0.3426,-0.3443,-0.3436,-0.3436,-0.3397,-0.3367,-0.3311,-0.322,-0.3192,-0.3166,-0.3109,-0.312,-0.3122,-0.2746,-0.2716,-0.3102,-0.3102,-0.3102,-0.3102,-0.3102,0,-0.3016,-0.3091,-0.3216,-0.3273,-0.3355,-0.3413,-0.3469,-0.3484,-0.3509,-0.3533,-0.3495,-0.3491,-0.3389,-0.3347,-0.327,-0.3227,-0.3211,-0.3165,-0.3144,-0.279,-0.2765,-0.3014,-0.3003,-0.3104,-0.3103,-0.3103,-0.3103,0,-0.3002,-0.31,-0.3208,-0.3336,-0.3366,-0.341,-0.349,-0.352,-0.356,-0.3584,-0.3589,-0.3563,-0.3521,-0.3436,-0.3344,-0.3301,-0.3243,-0.3231,-0.2856,-0.2795,-0.3204,-0.3199,-0.3273,-0.3275,-0.3277,-0.3278,-0.3279,0,-0.3004,-0.3069,-0.3217,-0.3256,-0.331,-0.3388,-0.3433,-0.3514,-0.3548,-0.362,-0.3627,-0.3618,-0.3572,-0.349,-0.3272,-0.3163,-0.3294,-0.2919,-0.2814,-0.3252,-0.3224,-0.3217,-0.321,-0.2361,-0.2355,-0.2349,-0.2345,0,-0.2986,-0.3041,-0.3128,-0.3198,-0.326,-0.3338,-0.3414,-0.3454,-0.3554,-0.3565,-0.3621,-0.3602,-0.3476,-0.3159,-0.3034,-0.2919,-0.2905,-0.2824,-0.331,-0.243,-0.241,-0.2378,-0.2397,-0.2298,-0.2303,-0.2306,-0.2309,-0.2311,-0.2939,-0.2979,-0.3068,-0.3102,-0.3167,-0.3218,-0.3111,-0.3146,-0.3141,-0.2925,-0.3325,-0.3045,-0.3107,-0.2573,-0.2537,-0.2427,-0.2627,-0.2555,-0.2561,-0.2575,-0.2511,-0.25,-0.2394,-0.2399,-0.2403,-0.2407,-0.241,0,-0.2788,-0.2914,-0.2948,-0.2934,-0.2789,-0.2967,-0.3003,-0.2772,-0.2508,-0.242,-0.2303,-0.2125,-0.1982,-0.2046,-0.1759,-0.189,-0.1726,-0.1918,-0.1667,-0.1713,-0.1755,-0.1641,-0.1297,-0.1295,-0.1293,-0.1292,0,0,-0.2739,-0.2708,-0.2702,-0.2461,-0.2457,-0.2197,-0.2119,-0.1804,-0.1607,-0.1248,-0.101,-0.1179,-0.1644,-0.1264,-0.1386,-0.1269,-0.1399,-0.1174,-0.2029,-0.1742,-0.1778,-0.2076,-0.1951,0,0,0,0,0]},{"header":{"parameterUnit":"m.s-1","parameterCategory":2,"la1":30.2991,"la2":30.254,"lo1":-89.0895,"lo2":-89.0444,"dy":0.0017,"dx":0.0017,"nx":28,"ny":28,"refTime":"2023-11-13T09:00:00:Z","depth":"2","parameterNumber":3,"parameterNumberName":"V-component_of_CURRENTS"},"data":[0,0,0,0,0,0,0,0,0,0,0,0,0,0,0,0,0,0,0,0,0,0,0,0,0,0,0,0,0,0,0,0,0,0,0,0,0,0,0,0,0,0,0,0,0,0,0,0,0,0,0,0,0,0,0,0,0,0,-0.0178,-0.0176,0,-0.0033,-0.0032,-0.003,0.0035,0.0035,0.0035,0.0035,0.0161,0.0165,0.0168,0,0,0,0,0,0,0,0,0,0,0,0,0,-0.034,-0.0338,-0.0178,-0.0176,-0.0174,-0.0033,-0.0032,-0.003,0.0035,0.0035,0.0035,0.0034,0.016,0.0164,0.0169,0,0,0,0,0,0,0,0,0,0,0,0,0,-0.0241,-0.0337,-0.0178,-0.0124,-0.0118,-0.0034,-0.0031,-0.0029,0.0035,0.0035,0.0035,0.0034,0.0159,0.0164,0.0169,0.0205,0,0,0.0185,0.0187,0,0,0,0,0,0,0,0,-0.0247,-0.0235,-0.0134,-0.0128,-0.0121,-0.0017,-0.0042,0.0049,0.0035,-0.0024,0.0035,0.0034,0.0101,0.0111,0.0138,0.0211,0.0216,0.0186,0.0189,0.0191,0.0193,0,0,0,0,0,0,0,-0.0254,-0.0241,-0.0121,-0.0132,-0.0124,-0.0088,-0.0074,-0.0024,0.0037,-0.0019,-0.0014,0.0004,0.0104,0.0132,0.0141,0.0218,0.0185,0.019,0.0193,0.0195,0.0366,0.0368,0,0,0,0,0,0,-0.0273,-0.0247,-0.0126,-0.0117,-0.0185,-0.0085,-0.007,-0.0051,0.0037,0.005,0.0004,0.0006,0.0124,0.0135,0.0146,0.0222,0.0191,0.0196,0.0199,0.0365,0.0367,0.0368,0,0,0,0,0,0,-0.0277,-0.0263,-0.0132,-0.0179,-0.0159,-0.0082,-0.0061,-0.0048,-0.002,0.0054,0.0067,0.0018,0.0124,0.0138,0.0203,0.0226,0.0198,0.0203,0.0363,0.0365,0.0367,0.0357,0,0,0,0,0,0,-0.0282,-0.0265,-0.0264,-0.018,-0.0157,-0.0086,-0.006,-0.0045,-0.0008,-0.0004,0.0071,0.0083,0.0125,0.0195,0.0208,0.0233,0.0207,0.0362,0.0364,0.0367,0.0355,0.0358,0.0361,0,0,0,0,0,-0.0288,-0.0287,-0.0265,-0.025,-0.0156,-0.0085,-0.0071,-0.0017,-0.0008,0.0006,0.0065,0.008,0.0221,0.02,0.0215,0.0243,0.036,0.0363,0.0367,0.0354,0.0358,0.0361,0,0,0,0,0,0,-0.0362,-0.0277,-0.0252,-0.0227,-0.0163,-0.0075,-0.0061,-0.0022,0.0036,0.0036,0.01,0.0117,0.0181,0.0214,0.019,0.0301,0.0292,0.0299,0.0278,0.0282,0.0284,0.028,0.0211,0,0,0,0,0,-0.0377,-0.0353,-0.0264,-0.0247,-0.0218,-0.0141,-0.011,-0.0069,-0.0004,0.0021,0.0079,0.0141,0.0207,0.0243,0.0298,0.036,0.0401,0.0388,0.039,0.0392,0.0401,0.0485,0.0496,0.0379,0.0379,0.0379,0,0,-0.0404,-0.0353,-0.0342,-0.0261,-0.0212,-0.0162,-0.0123,-0.0077,-0.0027,0.0025,0.0096,0.0148,0.0224,0.0296,0.0328,0.0327,0.0448,0.0396,0.0397,0.0405,0.0489,0.0501,0.0511,0.0381,0.038,0.038,0,0,-0.0442,-0.0399,-0.0388,-0.033,-0.0253,-0.0192,-0.0181,-0.009,-0.0044,0.0031,0.0086,0.0157,0.0246,0.0321,0.0366,0.0418,0.0453,0.0427,0.0447,0.0529,0.0539,0.0548,0.0611,0.0627,0.0435,0.0435,0.0435,0,-0.0484,-0.0443,-0.0376,-0.0339,-0.029,-0.0208,-0.0172,-0.0106,-0.0004,0.005,0.0046,0.0215,0.0265,0.0387,0.0403,0.0425,0.0467,0.0425,0.0531,0.0542,0.0552,0.0614,0.0631,0.0435,0.0435,0.0435,0.0435,0,-0.0499,-0.0461,-0.0449,-0.0367,-0.0307,-0.0266,-0.0157,-0.0095,-0.0035,0.0042,0.0158,0.024,0.0344,0.0371,0.0403,0.0509,0.0514,0.0517,0.0518,0.0563,0.0626,0.0644,0.0435,0.0435,0.0435,0.0435,0,0,-0.0607,-0.0485,-0.0482,-0.0438,-0.0315,-0.0267,-0.0172,-0.0051,0.0022,0.0113,0.0215,0.0328,0.0374,0.0429,0.0485,0.0556,0.0654,0.0561,0.0566,0.0615,0.0825,0.0906,0.0933,0.0672,0.0675,0.0677,0.0839,0,-0.0641,-0.0598,-0.0503,-0.0437,-0.0402,-0.0267,-0.0184,-0.0062,0.005,0.0167,0.028,0.0383,0.0399,0.0448,0.0526,0.0627,0.0701,0.0609,0.0783,0.0789,0.0848,0.0958,0.0659,0.0786,0.0857,0.086,0.0862,0,-0.069,-0.0647,-0.0605,-0.0463,-0.0431,-0.0368,-0.0201,-0.0107,0.0086,0.0175,0.0312,0.0404,0.0547,0.0532,0.0735,0.0674,0.0748,0.0813,0.0821,0.0915,0.0905,0.0756,0.0816,0.0892,0.089,0.0888,0.0886,0,-0.0828,-0.0709,-0.0679,-0.0634,-0.0471,-0.0407,-0.031,-0.0121,-0.0018,0.0186,0.0283,0.0455,0.0559,0.0675,0.0823,0.0782,0.1033,0.0996,0.1141,0.1146,0.094,0.0923,0.1134,0.1133,0.1133,0.1133,0.1132,0,-0.0908,-0.0883,-0.0741,-0.073,-0.0667,-0.0509,-0.0402,-0.027,-0.0063,0.0085,0.0265,0.0427,0.0599,0.0773,0.0861,0.1083,0.1073,0.1182,0.1216,0.093,0.0912,0.1033,0.1019,0.1139,0.1137,0.1136,0.1135,0,-0.1074,-0.0984,-0.0942,-0.079,-0.074,-0.0701,-0.0486,-0.0388,-0.0178,0.0027,0.0095,0.0417,0.0677,0.0849,0.1076,0.1162,0.1333,0.14,0.1058,0.1053,0.1372,0.1355,0.159,0.1595,0.1599,0.1602,0.1605,0,-0.1154,-0.1159,-0.1038,-0.1007,-0.0938,-0.0835,-0.0749,-0.0504,-0.0356,0.0046,0.0149,0.0476,0.0741,0.1123,0.1199,0.138,0.1481,0.135,0.1244,0.1421,0.1429,0.1406,0.1385,0.094,0.0937,0.0935,0.0933,0,-0.1309,-0.1272,-0.1236,-0.1184,-0.1101,-0.0978,-0.081,-0.0701,-0.0358,-0.0151,0.0264,0.0514,0.0852,0.0996,0.1223,0.1276,0.1295,0.1321,0.1593,0.0906,0.0832,0.0833,0.0828,0.0912,0.0914,0.0915,0.0917,0.0917,-0.1427,-0.1445,-0.1393,-0.1325,-0.1237,-0.1077,-0.0963,-0.0811,-0.0575,-0.03,0.0089,0.0338,0.0663,0.0803,0.1026,0.1145,0.1208,0.1233,0.1228,0.1229,0.1161,0.1102,0.1218,0.1221,0.1224,0.1227,0.123,0,-0.1539,-0.1536,-0.1514,-0.1396,-0.1308,-0.1206,-0.096,-0.0816,-0.0628,-0.0543,-0.0295,0.0014,0.0179,0.0548,0.0648,0.0902,0.0743,0.1005,0.0739,0.0755,0.0771,0.0672,0.0603,0.0604,0.0604,0.0605,0,0,-0.1599,-0.1624,-0.1588,-0.1467,-0.1365,-0.1186,-0.1036,-0.0891,-0.079,-0.0676,-0.0656,-0.0597,0.0046,0.0046,0.0335,0.0476,0.0532,0.0435,0.0876,0.0529,0.0542,0.0813,0.0671,0,0,0,0,0]}],[{"header":{"parameterUnit":"m.s-1","parameterCategory":2,"la1":30.2991,"la2":30.254,"lo1":-89.0895,"lo2":-89.0444,"dy":0.0017,"dx":0.0017,"nx":28,"ny":28,"refTime":"2023-11-13T09:00:00:Z","depth":"4","parameterNumber":2,"parameterNumberName":"U-component_of_CURRENTS"},"data":[0,0,0,0,0,0,0,0,0,0,0,0,0,0,0,0,0,0,0,0,0,0,0,0,0,0,0,0,0,0,0,0,0,0,0,0,0,0,0,0,0,0,0,0,0,0,0,0,0,0,0,0,0,0,0,0,0,0,-0.123,-0.123,0,-0.1241,-0.1241,-0.1241,-0.1234,-0.1234,-0.1234,-0.1234,-0.1186,-0.1184,-0.1183,0,0,0,0,0,0,0,0,0,0,0,0,0,-0.1148,-0.115,-0.123,-0.123,-0.1231,-0.1241,-0.1241,-0.1241,-0.1234,-0.1234,-0.1234,-0.1234,-0.1186,-0.1185,-0.1183,0,0,0,0,0,0,0,0,0,0,0,0,0,-0.1171,-0.115,-0.123,-0.1231,-0.1232,-0.1241,-0.1241,-0.1241,-0.1234,-0.1234,-0.1234,-0.1234,-0.1187,-0.1185,-0.1183,-0.1171,0,0,-0.1177,-0.1176,0,0,0,0,0,0,0,0,-0.1169,-0.1173,-0.1231,-0.1231,-0.1232,-0.1239,-0.1195,-0.1216,-0.1234,-0.1229,-0.1234,-0.1234,-0.12,-0.1197,-0.1195,-0.1168,-0.1166,-0.1177,-0.1176,-0.1175,-0.1174,0,0,0,0,0,0,0,-0.1168,-0.1172,-0.1231,-0.1231,-0.1232,-0.1213,-0.1216,-0.1198,-0.1211,-0.123,-0.123,-0.1237,-0.12,-0.1197,-0.1194,-0.1166,-0.1177,-0.1175,-0.1174,-0.1173,-0.1181,-0.1183,0,0,0,0,0,0,-0.1177,-0.1171,-0.123,-0.1231,-0.1204,-0.1215,-0.1219,-0.1234,-0.1212,-0.1211,-0.1237,-0.1237,-0.12,-0.1196,-0.1192,-0.1238,-0.1175,-0.1173,-0.1172,-0.118,-0.1182,-0.1183,0,0,0,0,0,0,-0.1175,-0.1183,-0.123,-0.1204,-0.1209,-0.1217,-0.1234,-0.1234,-0.1252,-0.1219,-0.1216,-0.1258,-0.12,-0.1195,-0.1205,-0.1233,-0.1172,-0.117,-0.1178,-0.1181,-0.1182,-0.1289,0,0,0,0,0,0,-0.1173,-0.1182,-0.1204,-0.1205,-0.1211,-0.126,-0.1234,-0.1235,-0.1257,-0.1257,-0.1235,-0.123,-0.12,-0.1208,-0.1203,-0.1229,-0.1169,-0.1177,-0.1179,-0.1182,-0.1284,-0.1294,-0.1303,0,0,0,0,0,-0.117,-0.1201,-0.1205,-0.1213,-0.1239,-0.1261,-0.1263,-0.1265,-0.1258,-0.1278,-0.1265,-0.1231,-0.122,-0.1208,-0.1202,-0.1228,-0.1175,-0.1179,-0.1182,-0.1279,-0.1292,-0.1303,0,0,0,0,0,0,-0.1177,-0.1203,-0.1208,-0.1245,-0.1264,-0.1262,-0.1284,-0.1281,-0.1286,-0.1288,-0.125,-0.1245,-0.1262,-0.1232,-0.1219,-0.1238,-0.1191,-0.1193,-0.1268,-0.128,-0.1289,-0.1287,-0.1167,0,0,0,0,0,-0.119,-0.1221,-0.1238,-0.1271,-0.1284,-0.1287,-0.1299,-0.1302,-0.1303,-0.1307,-0.1295,-0.1278,-0.1266,-0.1265,-0.1249,-0.1262,-0.1228,-0.1273,-0.1283,-0.1292,-0.1286,-0.126,-0.1267,-0.1193,-0.1193,-0.1193,0,0,-0.1201,-0.1221,-0.1239,-0.1275,-0.1288,-0.1319,-0.1295,-0.1325,-0.135,-0.1299,-0.1334,-0.1313,-0.1277,-0.1293,-0.1298,-0.1276,-0.1302,-0.1296,-0.1304,-0.1292,-0.1264,-0.1271,-0.1277,-0.1195,-0.1195,-0.1195,0,0,-0.1237,-0.1261,-0.1298,-0.132,-0.1353,-0.1356,-0.1373,-0.1389,-0.1399,-0.1427,-0.1394,-0.1393,-0.1386,-0.1364,-0.135,-0.1403,-0.1354,-0.1404,-0.1454,-0.1431,-0.1436,-0.1441,-0.1438,-0.1441,-0.1411,-0.1411,-0.1411,0,-0.1249,-0.1298,-0.1312,-0.1352,-0.1376,-0.1379,-0.1418,-0.1433,-0.1451,-0.1453,-0.1455,-0.1436,-0.1416,-0.1411,-0.1438,-0.1425,-0.141,-0.1414,-0.1444,-0.1447,-0.1449,-0.1445,-0.1447,-0.1417,-0.1416,-0.1415,-0.1415,0,-0.1302,-0.1351,-0.1377,-0.1429,-0.1456,-0.1492,-0.1513,-0.1539,-0.155,-0.1549,-0.156,-0.1537,-0.1519,-0.1522,-0.15,-0.151,-0.1495,-0.1459,-0.1414,-0.1463,-0.1456,-0.1456,-0.1424,-0.1422,-0.1421,-0.1419,0,0,-0.129,-0.1394,-0.1404,-0.1444,-0.1498,-0.1522,-0.1571,-0.1598,-0.1615,-0.1634,-0.1645,-0.1643,-0.162,-0.1602,-0.1574,-0.1562,-0.1588,-0.1532,-0.1528,-0.1531,-0.1557,-0.1489,-0.1482,-0.156,-0.156,-0.156,-0.1555,0,-0.1324,-0.1416,-0.1457,-0.1538,-0.1579,-0.1606,-0.1649,-0.1672,-0.1682,-0.1696,-0.1669,-0.1674,-0.1654,-0.1654,-0.164,-0.1588,-0.1588,-0.1594,-0.1505,-0.1503,-0.1437,-0.1479,-0.156,-0.1554,-0.1554,-0.1554,-0.1554,0,-0.1342,-0.1406,-0.1498,-0.1588,-0.1609,-0.1663,-0.1708,-0.1748,-0.1759,-0.1765,-0.1757,-0.173,-0.1721,-0.1696,-0.1648,-0.1655,-0.1622,-0.1586,-0.1584,-0.1475,-0.1434,-0.1485,-0.1554,-0.1554,-0.1554,-0.1554,-0.1554,0,-0.1296,-0.1422,-0.1499,-0.1533,-0.1638,-0.1685,-0.1737,-0.1767,-0.1793,-0.181,-0.1818,-0.1788,-0.178,-0.1732,-0.167,-0.1665,-0.1605,-0.158,-0.1492,-0.1488,-0.1503,-0.1497,-0.1551,-0.1551,-0.1551,-0.1551,-0.1551,0,-0.1284,-0.1341,-0.15,-0.1535,-0.1615,-0.1695,-0.1761,-0.1792,-0.1841,-0.185,-0.1858,-0.1842,-0.1788,-0.1741,-0.1685,-0.1589,-0.162,-0.1504,-0.1476,-0.1553,-0.1553,-0.1504,-0.1499,-0.1551,-0.1551,-0.1551,-0.1551,0,-0.119,-0.1308,-0.1396,-0.1545,-0.1595,-0.1649,-0.1781,-0.1804,-0.1881,-0.1892,-0.1904,-0.1889,-0.1826,-0.1765,-0.1676,-0.1604,-0.152,-0.1482,-0.159,-0.1569,-0.1421,-0.1421,-0.1383,-0.1381,-0.1379,-0.1377,-0.1375,0,-0.1143,-0.1185,-0.137,-0.1425,-0.15,-0.1612,-0.1663,-0.1791,-0.1806,-0.1895,-0.1863,-0.1858,-0.1823,-0.1645,-0.1603,-0.1499,-0.147,-0.144,-0.1413,-0.1424,-0.1401,-0.1405,-0.1409,-0.1372,-0.1371,-0.1371,-0.137,0,-0.1004,-0.109,-0.1149,-0.128,-0.1375,-0.1466,-0.1559,-0.1572,-0.1693,-0.182,-0.178,-0.1742,-0.167,-0.1574,-0.1508,-0.143,-0.1461,-0.1417,-0.1421,-0.1395,-0.1409,-0.139,-0.1396,-0.1363,-0.1364,-0.1364,-0.1365,0,-0.0863,-0.0861,-0.0953,-0.1052,-0.1183,-0.1227,-0.134,-0.1388,-0.145,-0.1594,-0.1585,-0.1593,-0.1653,-0.1539,-0.1473,-0.1397,-0.1366,-0.1315,-0.1324,-0.1332,-0.1312,-0.1322,-0.1226,0,0,0,0,0,-0.0672,-0.062,-0.0705,-0.0801,-0.0956,-0.102,-0.119,-0.1309,-0.148,-0.1422,-0.1509,-0.1453,-0.1393,-0.1396,-0.1292,-0.1392,-0.1324,-0.1267,-0.1261,-0.1321,-0.133,-0.1307,0,0,0,0,0,0,-0.0527,-0.0531,-0.0586,-0.0572,-0.0608,-0.0728,-0.0828,-0.0979,-0.0975,-0.1178,-0.1142,-0.1342,-0.1273,-0.1385,-0.1237,-0.1241,-0.1209,-0.1319,-0.1316,-0.1316,-0.1324,-0.1331,-0.131,0,0,0,0,0]},{"header":{"parameterUnit":"m.s-1","parameterCategory":2,"la1":30.2991,"la2":30.254,"lo1":-89.0895,"lo2":-89.0444,"dy":0.0017,"dx":0.0017,"nx":28,"ny":28,"refTime":"2023-11-13T09:00:00:Z","depth":"4","parameterNumber":3,"parameterNumberName":"V-component_of_CURRENTS"},"data":[0,0,0,0,0,0,0,0,0,0,0,0,0,0,0,0,0,0,0,0,0,0,0,0,0,0,0,0,0,0,0,0,0,0,0,0,0,0,0,0,0,0,0,0,0,0,0,0,0,0,0,0,0,0,0,0,0,0,-0.0105,-0.0104,0,0.0007,0.0008,0.0009,0.0056,0.0055,0.0055,0.0055,0.0165,0.0168,0.0171,0,0,0,0,0,0,0,0,0,0,0,0,0,-0.0241,-0.024,-0.0105,-0.0104,-0.0102,0.0006,0.0008,0.0009,0.0056,0.0055,0.0055,0.0055,0.0164,0.0168,0.0171,0,0,0,0,0,0,0,0,0,0,0,0,0,-0.0162,-0.0239,-0.0105,-0.0066,-0.0061,0.0006,0.0008,0.001,0.0056,0.0055,0.0055,0.0055,0.0163,0.0167,0.0172,0.0206,0,0,0.0186,0.0188,0,0,0,0,0,0,0,0,-0.0166,-0.0157,-0.0073,-0.0068,-0.0063,0.0017,0.0,0.0076,0.0056,0.0011,0.0055,0.0055,0.0116,0.0124,0.0145,0.0211,0.0216,0.0186,0.0189,0.0191,0.0193,0,0,0,0,0,0,0,-0.0172,-0.0161,-0.0061,-0.0072,-0.0065,-0.0041,-0.003,0.0015,0.0063,0.0015,0.0019,0.0032,0.0118,0.0141,0.0148,0.0218,0.0186,0.019,0.0193,0.0195,0.0301,0.0301,0,0,0,0,0,0,-0.0186,-0.0166,-0.0065,-0.0058,-0.0116,-0.0038,-0.0026,-0.0009,0.0063,0.0074,0.0032,0.0033,0.0133,0.0143,0.0152,0.018,0.0191,0.0196,0.0198,0.0301,0.0301,0.0301,0,0,0,0,0,0,-0.019,-0.0178,-0.0069,-0.011,-0.0094,-0.0036,-0.0016,-0.0006,0.0015,0.0076,0.0087,0.0042,0.0133,0.0146,0.0193,0.0185,0.0198,0.0202,0.0301,0.0301,0.0301,0.0246,0,0,0,0,0,0,-0.0194,-0.018,-0.0176,-0.0111,-0.0092,-0.0039,-0.0015,-0.0004,0.0024,0.0027,0.0089,0.0099,0.0134,0.0186,0.0198,0.0192,0.0206,0.0301,0.0301,0.0301,0.0248,0.0244,0.0241,0,0,0,0,0,-0.0199,-0.0193,-0.0177,-0.0165,-0.0088,-0.0039,-0.0028,0.0013,0.0024,0.0031,0.0077,0.0097,0.0194,0.0191,0.0204,0.0199,0.0301,0.0301,0.0301,0.0249,0.0245,0.0241,0,0,0,0,0,0,-0.025,-0.0186,-0.0167,-0.0142,-0.0098,-0.0031,-0.0022,0.0009,0.0052,0.0053,0.0108,0.0122,0.0156,0.0189,0.0184,0.0229,0.0247,0.0249,0.0202,0.0199,0.0195,0.0182,0.0209,0,0,0,0,0,-0.0259,-0.0241,-0.0176,-0.0159,-0.014,-0.0082,-0.0059,-0.0029,0.002,0.0038,0.0085,0.013,0.0168,0.0192,0.0231,0.0266,0.0288,0.0268,0.0265,0.0262,0.026,0.0293,0.0292,0.0302,0.0302,0.0302,0,0,-0.0277,-0.0239,-0.0229,-0.017,-0.0135,-0.0115,-0.0069,-0.0038,-0.0021,0.0044,0.0077,0.0121,0.0175,0.0208,0.0225,0.0235,0.0268,0.0262,0.0259,0.0259,0.0293,0.0292,0.0291,0.0302,0.0302,0.0302,0,0,-0.031,-0.0267,-0.0269,-0.0234,-0.0183,-0.0143,-0.0137,-0.0071,-0.0044,0.0001,0.0044,0.0087,0.0152,0.0188,0.0215,0.0219,0.0247,0.0226,0.0203,0.0234,0.0234,0.0233,0.0245,0.0246,0.0226,0.0226,0.0226,0,-0.0338,-0.0323,-0.0263,-0.0254,-0.0233,-0.0162,-0.016,-0.0117,-0.0044,-0.002,-0.0001,0.0098,0.0141,0.0184,0.0185,0.021,0.0228,0.0212,0.0229,0.0229,0.023,0.0242,0.0244,0.0224,0.0224,0.0224,0.0225,0,-0.0371,-0.0359,-0.0356,-0.0322,-0.0289,-0.0275,-0.0207,-0.0173,-0.0129,-0.0081,-0.0025,0.0046,0.0104,0.0121,0.0158,0.0184,0.0194,0.0217,0.0235,0.0225,0.0239,0.0242,0.022,0.0221,0.0222,0.0222,0,0,-0.0438,-0.0393,-0.0394,-0.0394,-0.0325,-0.0305,-0.0269,-0.0216,-0.0195,-0.0121,-0.0088,-0.0012,0.0036,0.007,0.0122,0.0155,0.0172,0.0185,0.0188,0.0189,0.0227,0.0194,0.0195,0.0199,0.02,0.02,0.0229,0,-0.049,-0.0509,-0.0454,-0.0463,-0.0468,-0.0384,-0.0356,-0.0295,-0.0229,-0.0176,-0.0091,-0.0039,0.0014,0.0045,0.0087,0.0159,0.018,0.0161,0.0244,0.0246,0.0212,0.0198,0.0202,0.0232,0.0233,0.0233,0.0234,0,-0.0543,-0.0549,-0.058,-0.0543,-0.0535,-0.0521,-0.0462,-0.0422,-0.0321,-0.0265,-0.0185,-0.0107,-0.0029,0.001,0.0119,0.0106,0.0156,0.0205,0.0208,0.0199,0.0219,0.025,0.024,0.0239,0.0239,0.0238,0.0238,0,-0.0648,-0.0631,-0.0666,-0.0654,-0.0603,-0.0592,-0.0554,-0.0461,-0.0425,-0.0317,-0.0273,-0.0164,-0.0103,-0.0018,0.0102,0.011,0.0209,0.0233,0.0244,0.0242,0.0288,0.0289,0.0285,0.0285,0.0285,0.0285,0.0285,0,-0.0726,-0.075,-0.0721,-0.0744,-0.0769,-0.0686,-0.0678,-0.0615,-0.0519,-0.048,-0.033,-0.027,-0.0106,-0.0014,0.0078,0.017,0.0191,0.0232,0.0248,0.0262,0.026,0.0289,0.0289,0.0286,0.0286,0.0286,0.0286,0,-0.0833,-0.0816,-0.0857,-0.0832,-0.0826,-0.0843,-0.077,-0.0754,-0.0639,-0.0581,-0.0547,-0.0354,-0.0221,-0.0075,0.0069,0.0132,0.0224,0.0244,0.0233,0.0249,0.0239,0.0236,0.0255,0.0254,0.0254,0.0253,0.0252,0,-0.0886,-0.0926,-0.0948,-0.0974,-0.0966,-0.0962,-0.0957,-0.0845,-0.081,-0.0632,-0.0616,-0.0449,-0.0321,-0.0134,0.0021,0.0176,0.0199,0.0233,0.0251,0.0222,0.0236,0.0234,0.0233,0.0251,0.0251,0.0251,0.0251,0,-0.0986,-0.1001,-0.1033,-0.1096,-0.1115,-0.1117,-0.109,-0.1075,-0.0931,-0.0837,-0.0667,-0.0503,-0.0351,-0.0159,-0.0037,0.0079,0.021,0.0226,0.0228,0.0245,0.0218,0.0232,0.0231,0.0248,0.0248,0.0249,0.0249,0,-0.1049,-0.1098,-0.1142,-0.118,-0.1224,-0.1235,-0.1214,-0.1131,-0.1065,-0.0856,-0.0812,-0.057,-0.0416,-0.0211,-0.0097,0.0015,0.0046,0.0072,0.0083,0.0088,0.004,-0.002,-0.0058,0,0,0,0,0,-0.1085,-0.1134,-0.1205,-0.1226,-0.1271,-0.1266,-0.1274,-0.1227,-0.1108,-0.1015,-0.0897,-0.0739,-0.0477,-0.0331,-0.0232,-0.0145,0.0031,-0.0028,0.0056,0.0233,0.0236,0.0206,0,0,0,0,0,0,-0.1107,-0.1185,-0.1216,-0.1249,-0.1248,-0.1268,-0.1274,-0.1203,-0.1128,-0.0995,-0.0859,-0.071,-0.0471,-0.0517,-0.0214,-0.0171,-0.011,0.012,0.0122,0.0231,0.0234,0.0237,0.0207,0,0,0,0,0]}]]